This is the latest recevied weather packets stored in our database for station/object K5FEP. If no packets are shown the sender has not sent any weather packets the latest 10 day(s).
| Time | Temp. | Humidity | Pressure | Rain* | Wind** | Luminosity | Snow |
|---|---|---|---|---|---|---|---|
| 1777506161 | 19.44° C | 85% | 1006.9 hPa | 0 mm | - | 17 W/m² | - |
| 1777505857 | 19.44° C | 84% | 1006.9 hPa | 0 mm | - | 26 W/m² | - |
| 1777505553 | 19.44° C | 85% | 1006.7 hPa | 0 mm | - | 30 W/m² | - |
| 1777505250 | 19.44° C | 84% | 1007 hPa | 0 mm | - | 26 W/m² | - |
| 1777504947 | 19.44° C | 83% | 1007.3 hPa | 0 mm | - | 25 W/m² | - |
| 1777504644 | 20° C | 83% | 1007.1 hPa | 0 mm | - | 11 W/m² | - |
| 1777504341 | 20° C | 83% | 1007.1 hPa | 0 mm | - | 24 W/m² | - |
| 1777504035 | 20° C | 82% | 1007 hPa | 0 mm | - | 31 W/m² | - |
| 1777503733 | 20° C | 81% | 1006.9 hPa | 0 mm | - | 38 W/m² | - |
| 1777503429 | 20° C | 81% | 1007.1 hPa | 0 mm | - | 51 W/m² | - |
| 1777503125 | 20° C | 81% | 1007.1 hPa | 0 mm | - | 66 W/m² | - |
| 1777502823 | 20° C | 81% | 1007.1 hPa | 0 mm | - | 55 W/m² | - |
| 1777502519 | 20° C | 82% | 1006.9 hPa | 0 mm | - | 51 W/m² | - |
| 1777502216 | 19.44° C | 82% | 1007.1 hPa | 0 mm | - | 55 W/m² | - |
| 1777501914 | 19.44° C | 82% | 1006.9 hPa | 0 mm | - | 45 W/m² | - |
| 1777501611 | 19.44° C | 83% | 1007 hPa | 0 mm | - | 29 W/m² | - |
| 1777501307 | 20° C | 84% | 1007.1 hPa | 0 mm | - | 39 W/m² | - |
| 1777501005 | 20° C | 84% | 1007 hPa | 0 mm | - | 88 W/m² | - |
| 1777500703 | 19.44° C | 85% | 1007 hPa | 0 mm | - | 100 W/m² | - |
| 1777500399 | 19.44° C | 84% | 1007.2 hPa | 0 mm | - | 95 W/m² | - |
| 1777500095 | 19.44° C | 85% | 1007.2 hPa | 0 mm | - | 85 W/m² | - |
| 1777499793 | 19.44° C | 84% | 1007.5 hPa | 0 mm | - | 84 W/m² | - |
| 1777499488 | 19.44° C | 84% | 1007.5 hPa | 0 mm | - | 83 W/m² | - |
| 1777499187 | 19.44° C | 84% | 1007.6 hPa | 0 mm | - | 100 W/m² | - |
| 1777498883 | 20° C | 82% | 1007.3 hPa | 0 mm | - | 128 W/m² | - |
* Rain latest hour (hover to see other rain measurements)
** Current wind speed in m/s (hover to see current wind gust speed)